Regional Weather Roundup
Issued by NWS

Home | Current Version | Previous Version | Text Only | Print | Product List | Glossary Off
Versions: 1 2 3 4 5 6 7 8 9 10 11 12 13 14 15 16 17 18 19 20 21 22 23 24 25 26 27

000
ASUS45 KPSR 200910
RWRAZ

ARIZONA HOURLY REGIONAL WEATHER ROUNDUP
NATIONAL WEATHER SERVICE PHOENIX AZ
200 AM MST SUN MAY 20 2018

NOTE: FAIR INDICATES FEW OR NO CLOUDS BELOW 12,000 FEET WITH NO
SIGNIFICANT WEATHER AND/OR OBSTRUCTIONS TO VISIBILITY.

AZZ001>003-036-201000-
NORTHWEST ARIZONA

CITY           SKY/WX    TMP DP  RH WIND       PRES   REMARKS
BULLHEAD CITY  CLEAR     81  30  16 SW6       29.72S
KINGMAN        CLEAR     66  27  23 CALM      29.88S
$$

AZZ004>008-015-016-018-201000-
NORTH CENTRAL ARIZONA

CITY           SKY/WX    TMP DP  RH WIND       PRES   REMARKS
GRAND CANYON   PTCLDY    43  17  35 CALM      30.06F
WILLIAMS       CLEAR     43  16  33 S9        30.05S
PRESCOTT       CLEAR     54  26  34 S7        29.99S
FLAGSTAFF      CLEAR     39  17  41 CALM      30.09S
PAYSON         CLEAR     54  12  19 CALM      30.00S
PAGE           CLEAR     69  35  28 W5        29.90S
$$

AZZ009>014-017-201000-
NORTHEAST ARIZONA

CITY           SKY/WX    TMP DP  RH WIND       PRES   REMARKS
WINSLOW        CLEAR     56  17  21 SW10      29.98S
SAINT JOHNS    CLEAR     48  16  27 W3        30.03S
WINDOW ROCK    CLEAR     52  15  23 CALM      30.07F
SHOW LOW       CLEAR     52  16  24 SE5       30.08S
$$

AZZ540-542>544-546-548-201000-
GREATER PHOENIX AREA

CITY           SKY/WX    TMP DP  RH WIND       PRES   REMARKS
PHOENIX        CLEAR     80  33  18 NW7       29.76S
BUCKEYE        CLEAR     73  30  20 CALM      29.79R
LUKE AFB       CLEAR     77  34  21 SW10      29.75S
DEER VALLEY    CLEAR     70  29  21 CALM      29.79S
SCOTTSDALE     CLEAR     77  36  22 CALM      29.81S
MESA-GATEWAY   CLEAR     70  28  20 S5        29.81S
$$

AZZ539-553-201000-
SOUTHWEST MARICOPA COUNTY AND PINAL COUNTY

CITY           SKY/WX    TMP DP  RH WIND       PRES   REMARKS
CASA GRANDE    CLEAR     70  36  28 SW5       29.82R
GILA BEND      FAIR      70  22  16 S3        29.77R
$$

AZZ503-504-507>509-201000-
SOUTHEAST ARIZONA

CITY           SKY/WX    TMP DP  RH WIND       PRES   REMARKS
TUCSON         CLEAR     69  29  22 SE6       29.90S
DAVIS-MONTHAN  CLEAR     64  27  24 SE6       29.89R
NOGALES        CLEAR     58  27  30 CALM      29.96S
SIERRA VISTA   CLEAR     60   4  10 S3        30.01S
DOUGLAS        CLEAR     52   6  15 NE6       29.97S
SAFFORD        CLEAR     66  16  14 NW9       29.87R
$$

AZZ532-201000-
SOUTHWEST ARIZONA

CITY           SKY/WX    TMP DP  RH WIND       PRES   REMARKS
YUMA           CLEAR     73  37  27 S6        29.74F
$$

CAZ041-043-047-048-061-525>527-560>570-201000-
SOUTHERN CALIFORNIA

CITY           SKY/WX    TMP DP  RH WIND       PRES   REMARKS
DOWNTOWN L.A.  CLOUDY    61  55  81 CALM      29.90F
L.A. AIRPORT   CLOUDY    60  53  77 W9        29.91F
SAN DIEGO      CLOUDY    61  54  77 NW6       29.93S
BURBANK        CLOUDY    60  55  83 CALM      29.89F
ONTARIO        CLOUDY    60  53  77 W7        29.90F
RIVERSIDE      CLOUDY    60  54  80 W5        29.90F
PALM SPRINGS   CLEAR     72  51  47 NW3       29.75F
EL CENTRO NAS  CLEAR     71  44  37 SW6       29.73F
IMPERIAL       CLEAR     69  48  47 W7        29.71F
BLYTHE         CLEAR     79  31  17 SW5       29.73S
NEEDLES        CLEAR     81  33  17 W5        29.74R
$$

NVZ020-UTZ003-201000-
SOUTHERN NEVADA-UTAH

CITY           SKY/WX    TMP DP  RH WIND       PRES   REMARKS
LAS VEGAS      PTCLDY    75  39  27 S3        29.79S
SALT LAKE CITY PTCLDY    61  43  51 S7        29.93F
$$

NMZ009-TXZ055-201000-
NEW MEXICO-WEST TEXAS

CITY           SKY/WX    TMP DP  RH WIND       PRES   REMARKS
ALBUQUERQUE    PTCLDY    59  40  49 E31G43    30.01R
EL PASO        PTCLDY    62  11  13 SE3       29.91R
$$


........................KEY........................
SKY/WX - SKY CONDITION/WEATHER
TMP    - TEMPERATURE IN FAHRENHEIT
DP     - DEW POINT IN FAHRENHEIT
RH     - RELATIVE HUMIDITY IN PERCENT
WIND   - DIRECTION AND SPEED IN MILES PER HOUR (MPH)
VRB    - VARIABLE WIND DIRECTION
PRES   - MEAN SEA LEVEL PRESSURE IN INCHES OF MERCURY
         F - FALLING PRESSURE   R - RISING PRESSURE
         S - STEADY PRESSURE
VSB    - VISIBILITY IN MILES
HX     - HEAT INDEX IN FAHRENHEIT
WCI    - WIND CHILL INDEX IN FAHRENHEIT
TC     - TEMPERATURE IN CELSIUS WHICH IS ALSO KNOWN AS
         TEMPERATURE IN CENTIGRADE
AFB    - AIR FORCE BASE
         LUKE AFB IS LUKE AIR FORCE BASE
         DAVIS-MONTHAN IS DAVIS-MONTHAN AIR FORCE BASE
NAS    - NAVAL AIR STATION
         EL CENTRO NAS IS EL CENTRO NAVAL AIR STATION
N/A    - NOT AVAILABLE





USA.gov is the U.S. government's official web portal to all federal, state and local government web resources and services.